Tracking 29040 objects as of 17-Jun-2024
HD Live streaming from Space Station
objects crossing your sky now

STARLINK-3991

Track STARLINK-3991 now!
10-day predictions
STARLINK-3991 is classified as:


NORAD ID: 52641
Int'l Code: 2022-052AV
Perigee: 546.0 km
Apogee: 547.7 km
Inclination: 53.2 °
Period: 95.4 minutes
Semi major axis: 6917 km
RCS: Unknown
Launch date: May 14, 2022
Source: United States (US)
Launch site: AIR FORCE EASTERN TEST RANGE (AFETR)
Your satellite tracking list
Your tracking list is empty




NASA's NSSDC Master Catalog

Two Line Element Set (TLE):
1 52641U 22052AV  24168.41282241  .00000399  00000-0  43179-4 0  9993
2 52641  53.2156 213.2373 0001231  91.9666 268.1467 15.08844172115839
Source of the keplerian elements: AFSPC